FENGYUN 1C DEB

Satellite information

Favourite Embed

Satellite Type and Status

DEBRISIN ORBIT

Key statistics

Satellite FENGYUN 1C DEB at a glance.

Uptime

9609

Days in orbit

Revolutions

≈ 14.3

Per day

Orbit

SSO

Sun Synchronous Orbit

Inclination

98.9

Latest

Satellite identification and parameters

Extended collection of information and parameters for FENGYUN 1C DEB.

Object identification

Identified? True

Debris? True

Object name: FENGYUN 1C DEB

International designator: 1999-025CUT

Object number (NORAD): 32197

Object ID (CCSDS): 32197

Country: PEOPLES REPUBLIC OF CHINA (PRC)

Current information (Y/N): Y

RCS size: SMALL

Orbital parameters

Period: 100.543 minutes

Inclination: 98.901 deg

SMA: 7162.467 km

Apoapsis: 901.032 km

Periapsis: 667.632 km

RAAN: 147.8043 deg

Eccentricy: 0.01629325

Argument of periapsis: 177.2398 deg

Mean anomaly: 309.7421 deg

Mean motion: 14.32216965 rev/day

Mean motion (dot): 0.00000981 rev/day2

B* drag term: 0.00033047862 1/REarth

Two-line elements (TLE)

Creation date: Aug. 30, 2025, 3:38 a.m.

Reference frame: TEME

Reference center: EARTH

Epoch: Aug. 29, 2025, 1:03 p.m. UTC

TLE line 0: 0 FENGYUN 1C DEB

TLE line 1: 1 32197U 99025CUT 25241.54441294 .00000981 00000-0 33048-3 0 9993

TLE line 2: 2 32197 98.9010 147.8043 0162932 177.2398 309.7421 14.32216965929171

Live tracking on map

Real-time ground track for satellite FENGYUN 1C DEB.

In-orbit conjunctions

A list of the most updated potential collisions computed for object FENGYUN 1C DEB.

Target Orbit TCA Probability of collision Miss distance Type
NOAA 16 DEB SSO 2025-03-23 15:26:20 0.0001186217 92.0 (m) DEBRIS
METEOR 1-14 LEO 2024-12-31 16:55:21 0.0001474899 120.0 (m) PAYLOAD

Associated space launch

Chinese polar orbiting meteorological satellite

FENGYUN 1C DEB was lifted into orbit during the mission ‘Long March 4B | Feng Yun 1C’, on board a Long March 4B space rocket.

The launch took place on May 10, 1999, 1:33 a.m. from Launch Complex 7.

For more information about the launch, click the button.

Launch to space Long March 4B | Feng Yun 1C
Long March 4B | Feng Yun 1C

Agency: N/A

Status: Launch Successful

Launch date: May 10, 1999, 1:33 a.m. UTC

Rocket: Long March 4B

Launch pad: Launch Complex 7

Location: Taiyuan Satellite Launch Center, People's Republic of China

...

Latest news about this satellite

There are no fresh news available about this satellite. Check back as we update our databases every day.


Newsletter sign-up

Weekly statistics, charts and insights to help you stay on top of the space industry.